Regional Weather Roundup
Issued by NWS

Home | Current Version | Previous Version | Text Only | Print | Product List | Glossary On
Versions: 1 2 3 4 5 6 7 8 9 10 11 12 13 14 15 16 17 18 19 20 21 22 23 24 25 26 27 28 29 30 31 32 33 34 35 36 37 38 39 40 41 42 43 44 45 46 47 48 49 50
133
ASUS43 KLMK 231910
RWRKY
KENTUCKY REGIONAL WEATHER ROUNDUP
NATIONAL WEATHER SERVICE LOUISVILLE KY
300 PM EDT WED MAY 23 2018

NOTE "FAIR" INDICATES FEW OR NO CLOUDS BELOW 12,000 FEET
WITH NO SIGNIFICANT WEATHER AND/OR OBSTRUCTIONS TO VISIBILITY.

KYZ001>023-026-027-061>063-070>075-232000-
WESTERN AND SOUTH CENTRAL KENTUCKY

CITY           SKY/WX    TMP DP  RH WIND       PRES   REMARKS
PADUCAH        FAIR      88  66  48 VRB7      30.09F HX  90
HENDERSON      NOT AVBL
OWENSBORO      FAIR      83  64  52 VRB7      30.11F
HOPKINSVILLE   FAIR      84  64  50 N6        30.09F
BOWLING GREEN  PTSUNNY   83  67  58 VRB3      30.10F
GLASGOW        FAIR      85  61  44 NE5       30.11F
$$

KYZ024-025-028>034-038-045-046-053-232000-
NORTH CENTRAL KENTUCKY

CITY           SKY/WX    TMP DP  RH WIND       PRES   REMARKS
LOUISVILLE/SDF FAIR      84  61  45 N7G21     30.11F
LOUISVILLE/LOU PTSUNNY   84  65  52 NE7       30.12F
FORT KNOX      FAIR      81  62  52 NE7       30.12F
$$

KYZ035>037-039>044-047>052-055>060-089>105-232000-
NORTHEAST KENTUCKY

CITY           SKY/WX    TMP DP  RH WIND       PRES   REMARKS
LEXINGTON      FAIR      82  64  54 N7        30.13F
COVINGTON      FAIR      79  56  45 CALM      30.14F
FRANKFORT      FAIR      82  61  48 MISG      30.12F
$$

KYZ054-064>069-076>088-106>120-232000-
SOUTHEAST KENTUCKY

CITY           SKY/WX    TMP DP  RH WIND       PRES   REMARKS
JACKSON        PTSUNNY   80  62  54 CALM      30.13F
LONDON         PTSUNNY   83  66  56 NW6       30.12F
SOMERSET       PTSUNNY   81  63  54 MISG      30.13S
MIDDLESBORO    PTSUNNY   81  65  59 N8        30.11F
MONTICELLO     MOCLDY    81  66  60 N15G21    30.13F
$$





USA.gov is the U.S. government's official web portal to all federal, state and local government web resources and services.